EN

Hourly Weather Trouville-sur-Mer

Today, 12 April, Monday

Time Temperature Precipitation Wind Pressure Humidity
00:00 +1°C° 0 mm 3 mps 768 mmHg 82%
01:00 +1°C° 0 mm 3 mps 768 mmHg 82%
02:00 0°C° 0 mm 3 mps 768 mmHg 82%
03:00 +1°C° 0 mm 2 mps 769 mmHg 82%
04:00 +1°C° 0 mm 2 mps 769 mmHg 83%
05:00 0°C° 0 mm 3 mps 769 mmHg 84%
06:00 0°C° 0 mm 3 mps 770 mmHg 85%
07:00 +2°C° 0 mm 3 mps 770 mmHg 77%
08:00 +4°C° 0 mm 4 mps 770 mmHg 69%
09:00 +6°C° 0 mm 4 mps 770 mmHg 61%
10:00 +7°C° 0 mm 5 mps 770 mmHg 61%
11:00 +7°C° 0 mm 5 mps 770 mmHg 61%
12:00 +8°C° 0 mm 6 mps 771 mmHg 62%
13:00 +8°C° 0.3 mm 6 mps 770 mmHg 68%
14:00 +7°C° 0.3 mm 6 mps 770 mmHg 73%
15:00 +7°C° 0.3 mm 6 mps 770 mmHg 79%
16:00 +6°C° 0.2 mm 5 mps 770 mmHg 82%
17:00 +6°C° 0.2 mm 5 mps 771 mmHg 85%
18:00 +5°C° 0.2 mm 4 mps 771 mmHg 87%
19:00 +4°C° 0 mm 3 mps 771 mmHg 88%
20:00 +3°C° 0 mm 3 mps 772 mmHg 89%
21:00 +3°C° 0 mm 2 mps 772 mmHg 89%
22:00 +2°C° 0 mm 2 mps 772 mmHg 89%
23:00 +1°C° 0 mm 2 mps 772 mmHg 89%

Tomorrow, 13 April, Tuesday

Time Temperature Precipitation Wind Pressure Humidity
00:00 +2°C° 0 mm 1 mps 773 mmHg 89%
01:00 +2°C° 0 mm 1 mps 773 mmHg 88%
02:00 +1°C° 0 mm 1 mps 773 mmHg 88%
03:00 +1°C° 0 mm 1 mps 773 mmHg 88%
04:00 -1°C° 0 mm 2 mps 773 mmHg 87%
05:00 -1°C° 0 mm 2 mps 773 mmHg 87%
06:00 -1°C° 0 mm 2 mps 773 mmHg 86%
07:00 +3°C° 0 mm 2 mps 773 mmHg 77%
08:00 +5°C° 0 mm 2 mps 773 mmHg 69%
09:00 +7°C° 0 mm 2 mps 774 mmHg 60%
10:00 +8°C° 0 mm 2 mps 773 mmHg 54%
11:00 +9°C° 0 mm 2 mps 773 mmHg 48%
12:00 +10°C° 0 mm 2 mps 773 mmHg 42%
13:00 +10°C° 0 mm 2 mps 773 mmHg 43%
14:00 +10°C° 0 mm 3 mps 772 mmHg 45%
15:00 +10°C° 0 mm 3 mps 772 mmHg 46%
16:00 +9°C° 0 mm 3 mps 772 mmHg 53%
17:00 +7°C° 0 mm 4 mps 772 mmHg 60%
18:00 +6°C° 0 mm 4 mps 772 mmHg 66%
19:00 +4°C° 0 mm 3 mps 772 mmHg 67%
20:00 +3°C° 0 mm 3 mps 772 mmHg 68%
21:00 +1°C° 0 mm 3 mps 773 mmHg 69%
22:00 +1°C° 0 mm 3 mps 772 mmHg 70%
23:00 +1°C° 0 mm 2 mps 772 mmHg 71%

Day after tomorrow, 14 April, Wednesday

Time Temperature Precipitation Wind Pressure Humidity
00:00 +1°C° 0 mm 2 mps 772 mmHg 72%
01:00 +1°C° 0 mm 2 mps 772 mmHg 73%
02:00 +1°C° 0 mm 2 mps 772 mmHg 74%
03:00 -1°C° 0 mm 2 mps 772 mmHg 76%
04:00 +1°C° 0 mm 2 mps 772 mmHg 76%
05:00 +1°C° 0 mm 2 mps 772 mmHg 76%
06:00 +1°C° 0 mm 2 mps 772 mmHg 77%
07:00 +4°C° 0 mm 2 mps 772 mmHg 71%
08:00 +6°C° 0 mm 2 mps 772 mmHg 65%
09:00 +8°C° 0 mm 2 mps 772 mmHg 59%
10:00 +9°C° 0 mm 3 mps 772 mmHg 56%
11:00 +10°C° 0 mm 4 mps 771 mmHg 52%
12:00 +9°C° 0 mm 5 mps 771 mmHg 49%
13:00 +9°C° 0 mm 5 mps 771 mmHg 50%
14:00 +9°C° 0 mm 6 mps 771 mmHg 51%
15:00 +9°C° 0 mm 6 mps 770 mmHg 51%
16:00 +8°C° 0 mm 6 mps 770 mmHg 56%
17:00 +7°C° 0 mm 6 mps 771 mmHg 60%
18:00 +5°C° 0 mm 7 mps 771 mmHg 65%
19:00 +3°C° 0 mm 6 mps 771 mmHg 66%
20:00 +2°C° 0 mm 5 mps 771 mmHg 67%
21:00 0°C° 0 mm 5 mps 771 mmHg 69%
22:00 0°C° 0 mm 5 mps 772 mmHg 75%
23:00 -1°C° 0 mm 4 mps 772 mmHg 81%

15 April, Thursday

Time Temperature Precipitation Wind Pressure Humidity
00:00 -2°C° 0 mm 4 mps 772 mmHg 88%
01:00 -2°C° 0 mm 4 mps 771 mmHg 89%
02:00 -2°C° 0 mm 4 mps 771 mmHg 91%
03:00 -1°C° 0 mm 3 mps 771 mmHg 92%
04:00 -1°C° 0 mm 3 mps 771 mmHg 92%
05:00 -1°C° 0 mm 3 mps 771 mmHg 91%
06:00 -1°C° 0 mm 3 mps 771 mmHg 90%
07:00 0°C° 0 mm 4 mps 771 mmHg 80%
08:00 +4°C° 0 mm 4 mps 771 mmHg 70%
09:00 +6°C° 0 mm 5 mps 771 mmHg 60%
10:00 +7°C° 0 mm 5 mps 771 mmHg 57%
11:00 +7°C° 0 mm 5 mps 770 mmHg 53%
12:00 +8°C° 0 mm 5 mps 770 mmHg 50%
13:00 +8°C° 0 mm 6 mps 769 mmHg 53%
14:00 +8°C° 0 mm 6 mps 769 mmHg 56%
15:00 +8°C° 0 mm 7 mps 769 mmHg 59%
16:00 +6°C° 0 mm 7 mps 769 mmHg 63%
17:00 +5°C° 0 mm 6 mps 768 mmHg 67%
18:00 +4°C° 0 mm 6 mps 768 mmHg 71%
19:00 +3°C° 0 mm 6 mps 768 mmHg 76%
20:00 +2°C° 0 mm 5 mps 769 mmHg 81%
21:00 +1°C° 0 mm 5 mps 769 mmHg 85%
22:00 0°C° 0 mm 5 mps 769 mmHg 86%
23:00 0°C° 0 mm 4 mps 768 mmHg 87%

16 April, Friday

Time Temperature Precipitation Wind Pressure Humidity
00:00 0°C° 0 mm 4 mps 768 mmHg 88%
01:00 -1°C° 0 mm 4 mps 768 mmHg 88%
02:00 -1°C° 0 mm 4 mps 768 mmHg 88%
03:00 -2°C° 0 mm 4 mps 768 mmHg 88%
04:00 -1°C° 0 mm 4 mps 768 mmHg 87%
05:00 -1°C° 0 mm 4 mps 768 mmHg 86%
06:00 -1°C° 0 mm 5 mps 768 mmHg 85%
07:00 +1°C° 0 mm 5 mps 768 mmHg 77%
08:00 +4°C° 0 mm 6 mps 768 mmHg 70%
09:00 +6°C° 0 mm 7 mps 768 mmHg 62%
10:00 +8°C° 0 mm 7 mps 768 mmHg 58%
11:00 +9°C° 0 mm 8 mps 768 mmHg 55%
12:00 +10°C° 0 mm 8 mps 767 mmHg 51%
13:00 +9°C° 0 mm 8 mps 767 mmHg 53%
14:00 +9°C° 0 mm 8 mps 767 mmHg 55%
15:00 +9°C° 0 mm 8 mps 767 mmHg 57%
16:00 +7°C° 0 mm 8 mps 768 mmHg 61%
17:00 +6°C° 0 mm 8 mps 768 mmHg 65%
18:00 +5°C° 0 mm 8 mps 768 mmHg 69%
19:00 +4°C° 0 mm 7 mps 768 mmHg 72%
20:00 +3°C° 0 mm 7 mps 768 mmHg 74%
21:00 +3°C° 0 mm 6 mps 769 mmHg 77%
22:00 +2°C° 0 mm 6 mps 769 mmHg 81%
23:00 +1°C° 0 mm 5 mps 769 mmHg 85%

17 April, Saturday

Time Temperature Precipitation Wind Pressure Humidity
00:00 +1°C° 0 mm 4 mps 769 mmHg 89%
01:00 0°C° 0 mm 4 mps 768 mmHg 90%
02:00 0°C° 0 mm 4 mps 768 mmHg 91%
03:00 0°C° 0 mm 4 mps 768 mmHg 92%
04:00 0°C° 0 mm 4 mps 768 mmHg 92%
05:00 +2°C° 0 mm 3 mps 768 mmHg 93%
06:00 +2°C° 0 mm 3 mps 768 mmHg 93%
07:00 +4°C° 0 mm 4 mps 768 mmHg 84%
08:00 +6°C° 0 mm 4 mps 768 mmHg 76%
09:00 +8°C° 0 mm 4 mps 768 mmHg 68%
10:00 +9°C° 0 mm 5 mps 768 mmHg 64%
11:00 +10°C° 0 mm 5 mps 768 mmHg 61%
12:00 +12°C° 0 mm 5 mps 767 mmHg 58%
13:00 +10°C° 0 mm 5 mps 767 mmHg 60%
14:00 +10°C° 0 mm 5 mps 767 mmHg 62%
15:00 +10°C° 0 mm 5 mps 767 mmHg 64%
16:00 +9°C° 0 mm 5 mps 767 mmHg 68%
17:00 +8°C° 0 mm 5 mps 767 mmHg 72%
18:00 +7°C° 0 mm 4 mps 767 mmHg 76%
19:00 +6°C° 0 mm 4 mps 767 mmHg 79%
20:00 +5°C° 0 mm 3 mps 768 mmHg 81%
21:00 +3°C° 0 mm 3 mps 768 mmHg 84%
22:00 +3°C° 0 mm 3 mps 768 mmHg 85%
23:00 +4°C° 0 mm 2 mps 768 mmHg 86%
Show more

We Need Your Consent

Meteoprog and our Service Providers may store and access personal data such as cookies, device identifiers or other similar technologies on your device and process such data to personalise content and ads, as well as provide social media features and to analyse the traffic.

  • Store and/or access information on your device

    Cookies, device identifiers or other information can be stored or accessed on your device for the purposes indicated above.

  • Personalised ads and content, ad and content measurement, audience insights, and products development

    Ads and content can be personalised based on a profile. More data can be added to better personalise ads and content. Ad and content performance can be measured. Insights about the audience who saw the ads and content can be derived. Such data can be used to develop or improve user’s experience, systems and software.

By clicking ‘I Agree’ you will allow the use of indicated cookies, device identifiers, web beacons or other similar technologies. Your settings can be changed in the browser on your device.

For certain purposes, legitimate interests may be relied on, rather than consent. You can read more about this in our Privacy and Cookie Policy.